EHI
0 0 0 0 0 0 0 0 0 0 0 0 0 0 0 0 0 0 0 0 0 0 0 0 0 0 0 0 0 0 0 0 0 0 0 0 0 0 0 0 0 0 0 0
0 0 0 0 0 0 0 0 0 0 0 0 0 0 0 0 0 0 0 0 0 0 0 0 0 0 0 0 0 0 0 0 0 0 0 0 0 0 0 0 0 0 0 0
0 0 0 0 0 0 0 0 0 0 0 0 0 0 0 0 0 0 0 0 0 0 0 0 0 0 0 0 0 0 0 0 0 0 0 0 0 0 0 0 0 0 0 0
0 0 0 0 0 0 0 0 0 0 0 0 0 0 0 0 0 0 0 0 0 0 0 0 0 0 0 0 0 0 0 0 0 0 0 0 0 0 0 0 0 0 0 0
0 0 0 0 0 0 0 0 0 0 0 0 0 0 0 0 0 0 0 0 0 0 0 0 0 0 0 0 0 0 0 0 0 0 0 0 0 0 0 0 0 0 0 0
0 0 0 0 0 0 0 0 0 0 0 0 0 0 0 0 0 0 0 0 0 0 0 0 0 0 0 0 0 0 0 0 0 0 0 0 0 0 0 0 0 0 0 0
0 0 0 0 0 0 0 0 0 0 0 0 0 0 0 0 0 0 0 0 0 0 0 0 0 0 0 0 0 0 0 0 0 0 0 0 0 0 0 0 0 0 0 0
0 0 0 0 0 0 0 0 0 0 0 0 0 0 0 0 0 0 0 0 0 0 0 0 0 0 0 0 0 0 0 0 0 0 0 0 0 0 0 0 0 0 0 0
0 0 0 0 0 0 0 0 0 0 0 0 0 0 0 0 0 0 0 0 0 0 0 0 0 0 0 0 0 0 0 0 0 0 0 0 0 0 0 0 0 0 0 0
0 0 0 0 0 0 0 0 0 0 0 0 0 0 0 0 0 0 0 0 0 0 0 0 0 0 0 0 0 0 0 0 0 0 0 0 0 0 0 0 0 0 0 0
0 0 0 0 0 0 0 0 0 0 0 0 0 0 0 0 0 0 0 0 0 0 0 0 0 0 0 0 0 0 0 0 0 0 0 0 0 0 0 0 0 0 0 0
0 0 0 0 0 0 0 0 0 0 0 0 0 0 0 0 0 0 0 0 0 0 0 0 0 0 0 0 0 0 0 0 0 0 0 0 0 0 0 0 0 0 0 0
0 0 0 0 0 0 0 0 0 0 0 0 0 0 0 0 0 0 0 0 0 0 0 0 0 0 0 0 0 0 0 0 0 0 0 0 0 0 0 0 0 0 0 0
0 0 0 0 0 0 0 0 0 0 0 0 0 0 0 0 0 0 0 0 0 0 0 0 0 0 0 0 0 0 0 0 0 0 0 0 0 0 0 0 0 0 0 0
0 0 0 0 0 0 0 0 0 0 0 0 0 0 0 0 0 0 0 0 0 0 0 0 0 0 0 0 0 0 0 0 0 0 0 0 0 0 0 0 0 0 0 0
0 0 0 0 0 0 0 0 0 0 0 0 0 0 0 0 0 0 0 0 0 0 0 0 0 0 0 0 0 0 0 0 0 0 0 0 0 0 0 0 0 0 0 0
0 0 0 0 0 0 0 0 0 0 0 0 0 0 0 0 0 0 0 0 0 0 0 0 0 0 0 0 0 0 0 0 0 0 0 0 0 0 0 0 0 0 0 0
0 0 0 0 0 0 0 0 0 0 0 0 0 0 0 0 0 0 0 0 0 0 0 0 0 0 0 0 0 0 0 0 0 0 0 0 0 0 0 0 0 0 0 0
0 0 0 0 0 0 0 0 0 0 0 0 0 0 0 0 0 0 0 0 0 0 0 0 0 0 0 0 0 0 0 0 0 0 0 0 0 0 0 0 0 0 0 0
0 0 0 0 0 0 0 0 0 0 0 0 0 0 0 0 0 0 0 0 0 0 0 0 0 0 0 0 0 0 0 0 0 0 0 0 0 0 0 0 0 0 0 0
0 0 0 0 0 0 0 0 0 0 0 0 0 0 0 0 0 0 0 0 0 0 0 0 0 0 0 0 0 0 0 0 0 0 0 0 0 0 0 0 0 0 0 0
0 0 0 0 0 0 0 0 0 0 0 0 0 0 0 0 0 0 0 0 0 0 0 0 0 0 0 0 0 0 0 0 0 0 0 0 0 0 0 0 0 0 0 0
0 0 0 0 0 0 0 0 0 0 0 0 0 0 0 0 0 0 0 0 0 0 0 0 0 0 0 0 0 0 0 0 0 0 0 0 0 0 0 0 0 0 0 0
0 0 0 0 0 0 0 0 0 0 0 0 0 0 0 0 0 0 0 0 0 0 0 0 0 0 0 0 0 0 0 0 0 0 0 0 0 0 0 0 0 0 0 0
0 0 0 0 0 0 0 0 0 0 0 0 0 0 0 0 0 0 0 0 0 0 0 0 0 0 0 0 0 0 0 0 0 0 0 0 0 0 0 0 0 0 0 0
0 0 0 0 0 0 0 0 0 0 0 0 0 0 0 0 0 0 0 0 0 0 0 0 0 0 0 0 0 0 0 0 0 0 0 0 0 0 0 0 0 0 0 0
Wind_Speed
3 4 4 6 7 7 6 3 2 5 6 7 7 7 7 7 6 6 5 5 6 6 5 4 5 4 4 4 4 3 2 2 2 2 2 3 3 3 3 3 4 4 4 3
3 3 6 7 7 6 4 2 1 3 4 6 5 5 5 8 8 8 8 7 8 6 4 4 4 4 4 3 3 3 2 1 2 1 1 1 2 3 3 3 4 4 4 4
6 4 6 6 5 4 2 4 5 4 1 1 1 4 1 3 4 4 5 7 8 9 8 6 5 4 4 3 2 2 1 1 1 2 1 2 2 3 3 4 4 4 4 4
2 3 5 5 5 6 4 6 6 3 2 3 2 1 4 3 3 4 5 6 7 7 7 6 6 5 4 3 2 2 1 0 1 2 2 2 2 2 3 3 3 5 4 4
3 4 5 4 5 7 7 5 3 1 2 2 1 4 5 1 4 5 5 6 7 7 8 7 6 6 4 4 3 2 1 1 2 2 2 1 2 2 3 3 4 4 4 4
2 2 5 6 3 4 3 4 6 6 5 2 3 5 5 5 7 5 5 6 7 7 6 6 5 5 3 3 2 2 1 1 2 2 2 1 2 3 4 4 4 4 3 3
1 1 1 3 3 2 5 6 5 5 4 5 2 4 6 5 5 7 8 7 7 7 7 6 6 5 4 3 3 2 1 1 2 2 2 1 1 2 2 3 3 3 3 3
3 2 2 2 5 4 3 8 7 3 3 5 2 2 4 2 3 5 6 7 7 7 6 7 7 6 5 5 4 3 2 1 1 1 2 2 1 1 2 2 2 3 3 3
5 2 1 1 2 5 4 3 6 6 1 1 3 1 3 0 2 4 5 6 7 7 7 7 6 6 5 5 4 4 3 2 1 1 1 1 2 2 2 3 3 3 3 3
6 3 1 1 4 3 5 6 5 4 2 1 2 3 5 6 7 6 7 7 7 7 6 6 6 6 5 4 4 4 3 3 2 1 0 0 2 2 2 2 3 4 4 4
4 5 1 2 1 3 1 2 5 4 5 5 2 6 7 9 8 8 8 8 8 7 7 7 6 6 5 4 4 4 3 2 2 1 1 1 2 2 2 2 3 3 3 4
3 6 1 3 4 4 4 4 6 4 2 4 3 8 5 7 7 7 7 7 7 7 7 7 6 5 4 4 4 4 4 3 3 2 1 0 1 2 2 3 3 3 4 4
5 6 4 5 6 2 1 4 5 6 4 3 3 7 3 3 4 5 6 7 6 7 6 5 5 5 5 5 5 5 5 4 3 2 1 0 1 1 1 2 3 3 3 4
6 5 6 7 7 5 4 4 5 6 4 3 6 6 3 5 6 6 6 7 7 7 7 6 6 6 6 5 5 5 5 4 4 3 2 1 1 1 1 2 2 2 3 3
6 3 4 6 6 5 6 7 7 7 8 8 7 6 8 9 9 8 7 7 6 6 6 7 7 6 6 5 5 5 5 4 4 4 3 3 2 2 1 1 2 2 3 3
4 3 0 3 3 4 4 8 9 8 7 7 5 6 7 6 5 5 6 8 7 7 7 8 7 6 6 6 6 6 6 5 4 5 4 4 3 2 1 1 1 2 3 3
3 4 2 3 4 2 6 10 11 8 7 9 9 9 5 5 7 8 8 8 8 8 7 7 7 7 7 7 7 7 7 5 5 5 4 4 3 2 2 2 1 2 3 2
7 5 3 1 1 5 11 6 8 9 8 8 7 7 9 9 8 7 7 8 7 7 6 6 6 6 6 5 6 5 5 5 5 4 4 4 4 3 3 2 2 3 2 2
6 7 4 3 2 7 9 5 7 7 7 8 9 8 7 5 4 1 4 7 8 7 6 5 5 5 5 5 5 5 4 4 4 4 4 5 5 4 3 3 4 3 2 3
5 5 6 4 2 6 9 6 3 5 4 5 9 9 8 8 4 5 4 5 6 5 5 5 4 4 4 4 5 6 4 4 5 5 5 5 5 5 5 5 4 3 3 3
2 2 4 4 4 9 9 3 5 4 9 4 8 9 9 9 8 6 6 5 6 5 5 6 6 4 4 4 5 5 4 5 6 5 4 4 4 5 5 4 3 3 3 3
8 6 6 5 4 10 6 4 7 9 4 3 6 7 8 7 5 6 7 7 7 6 5 6 5 4 3 4 5 4 3 4 4 4 4 4 4 4 3 4 4 3 3 3
7 10 9 11 11 9 6 8 7 6 5 5 7 7 9 8 7 7 7 7 6 6 5 4 5 4 2 2 4 3 2 2 2 2 3 4 4 4 3 4 4 3 2 3
5 3 3 4 8 7 5 5 4 6 7 7 7 8 9 9 9 8 7 6 6 5 5 5 6 5 2 1 1 1 1 1 2 1 2 3 3 4 3 3 3 3 3 3
6 2 2 5 6 4 5 6 7 6 5 6 6 7 10 10 9 8 7 7 6 5 4 5 6 5 3 3 3 2 1 2 1 0 1 2 2 3 3 3 3 4 4 4
6 6 6 8 9 7 9 10 8 8 8 9 8 7 7 9 10 8 7 6 6 6 5 6 6 5 4 4 4 3 2 2 3 2 2 2 2 2 2 3 4 4 4 6
Wind_Direction
163 121 172 190 172 166 159 169 225 237 203 184 219 228 209 201 191 188 182 163 151 158 165 150 141 132 111 86 81 71 59 22 15 3 352 342 336 327 328 327 330 330 330 332
82 189 195 170 162 148 148 141 232 260 212 193 223 249 220 192 196 189 179 164 155 151 152 151 142 127 114 107 96 76 63 38 11 339 308 286 293 299 299 318 331 330 328 327
160 206 170 156 148 132 149 177 202 213 273 286 128 344 250 200 188 187 172 159 156 162 166 165 150 139 130 125 125 103 94 62 7 351 344 343 348 337 340 337 332 326 325 324
180 211 164 155 171 156 204 212 200 182 111 280 147 202 272 209 188 189 177 160 162 163 163 162 155 152 154 163 150 129 129 92 337 3 12 0 351 327 305 305 311 321 328 330
200 180 153 170 200 169 203 208 188 154 131 346 16 133 273 186 203 215 198 180 172 172 166 163 163 166 166 168 158 153 156 281 323 356 8 5 339 311 310 320 331 334 330 332
203 192 166 184 190 172 159 63 43 47 66 331 239 145 238 221 208 199 195 186 178 174 165 160 163 162 163 168 164 156 153 286 320 347 6 9 342 339 345 340 339 335 328 327
24 352 193 146 106 40 83 78 34 8 13 264 252 137 233 238 200 178 179 184 181 172 162 162 165 172 179 184 187 177 164 267 306 335 347 328 322 331 332 322 328 331 329 322
127 265 242 174 157 166 158 130 148 182 223 283 342 200 251 251 178 162 166 173 177 179 176 177 180 181 189 193 188 184 183 224 287 315 316 312 325 318 313 314 314 320 312 303
151 237 311 85 122 133 127 140 163 138 184 280 303 327 326 169 178 178 180 180 189 191 189 187 186 186 193 194 194 189 181 196 259 286 318 332 343 337 327 327 329 324 323 325
139 149 286 18 55 42 141 142 94 108 136 313 306 237 228 218 220 217 207 202 204 197 194 189 189 193 197 196 193 185 176 184 211 241 289 5 334 327 331 343 346 342 340 346
115 122 353 32 182 206 141 112 106 116 150 152 227 261 225 203 205 204 211 207 199 193 190 192 195 198 195 187 182 178 180 179 200 220 244 11 335 339 353 351 339 342 348 354
122 112 135 271 283 201 167 166 140 143 207 162 178 263 263 196 199 193 200 201 196 191 190 191 192 192 191 192 190 188 189 191 206 207 190 338 345 3 7 349 340 349 355 358
122 106 78 350 336 342 179 170 145 131 122 152 174 263 291 204 205 201 192 193 191 188 187 189 191 196 201 203 201 197 198 202 204 189 171 112 357 3 350 332 337 350 356 358
111 115 155 190 218 205 211 207 161 129 152 205 216 236 242 211 213 216 205 195 191 192 188 187 198 211 214 210 204 200 206 203 193 184 180 196 236 248 282 313 334 339 346 354
102 137 206 227 230 195 205 205 187 176 183 186 222 217 227 214 209 208 201 194 191 196 197 197 202 212 215 212 209 204 206 202 188 181 192 213 223 228 270 323 325 328 342 345
105 142 163 294 254 218 222 217 202 203 198 204 212 242 236 212 191 190 190 187 193 201 202 202 203 203 205 203 202 199 205 203 184 185 203 213 214 225 254 281 301 324 335 335
133 138 125 269 294 349 263 223 201 205 204 187 210 225 198 180 193 196 194 191 196 200 198 196 198 200 201 200 195 195 201 191 183 194 207 208 208 218 241 259 288 305 309 314
142 131 136 213 48 234 245 240 193 199 217 196 197 198 188 193 198 196 184 180 189 190 189 193 195 198 201 197 195 192 183 177 184 197 209 211 208 219 232 246 267 278 281 285
144 137 130 136 219 276 288 265 178 175 237 207 189 191 189 158 101 334 202 176 181 183 181 185 185 181 180 183 179 158 163 174 183 202 213 216 210 215 225 241 255 259 264 277
87 102 120 133 186 248 257 269 174 111 263 236 182 178 166 133 142 238 215 167 163 160 159 157 150 142 154 173 154 142 158 171 199 212 215 215 210 211 222 235 245 246 244 261
129 96 141 167 213 263 257 258 98 140 239 236 178 172 164 174 193 195 169 157 156 154 154 145 136 141 167 166 148 148 161 200 218 212 208 213 217 220 227 236 241 247 257 278
179 173 188 158 193 254 245 157 180 213 226 171 163 164 163 170 159 151 155 156 155 152 151 143 136 144 157 154 147 153 195 228 221 206 212 229 235 236 230 230 250 252 255 275
199 191 185 185 210 232 212 202 212 179 174 176 162 164 150 149 159 162 162 162 161 159 158 147 139 132 118 135 140 154 231 229 198 203 236 254 263 261 251 237 249 258 250 251
266 183 161 237 260 254 235 218 195 183 183 180 168 161 156 159 164 162 161 163 159 155 152 141 131 129 125 106 111 170 254 185 150 195 260 278 287 293 288 263 246 243 249 250
243 205 204 252 271 292 274 235 208 189 170 159 158 164 165 158 163 165 163 163 160 155 150 137 135 132 119 89 65 30 29 97 109 28 326 316 306 302 306 297 262 245 241 229
218 196 197 234 231 205 232 230 207 184 184 177 165 164 167 163 163 160 160 160 152 148 140 129 127 123 112 88 62 29 26 73 88 59 12 348 332 326 323 318 320 302 288 312